Location: Fours
(44.3167°N, 6.7000°E)
Time: 12:50:55
(UTC+00:00)

Cosmos 1933 - Pass Details

Date: 30 November 2020
Orbit: 546 x 564 km, 82.5° (Epoch: 26 January)

Event Time Altitude Azimuth Distance (km) Brightness Sun altitude
Rises 16:29:22 0° 171° (S) 2,716 7.1 -6.2°
Reaches altitude 10° 16:31:35 10° 164° (SSE) 1,830 6.1 -6.5°
Maximum altitude 16:35:24 43° 93° (E) 795 3.7 -7.2°
Drops below altitude 10° 16:39:16 10° 22° (NNE) 1,856 5.6 -7.8°
Sets 16:41:32 0° 15° (NNE) 2,759 6.5 -8.2°
